Simultaneous Nadir Overpasses (SNOs) Predictions

Prediction of SNOs between AQUA and TERRA Satellite Orbit:

Table of predicted SNOs for the next 14.0 days since TLE Epoch: 12/9/2023
Index Date (AQUA) Time (AQUA) Lat,Lon (AQUA) SZA (AQUA ) Date (TERRA) Time (TERRA) Lat,Lon (TERRA) SZA (TERRA ) Distance(km) Time Diff (sec)
1 12/22/2023 01:38:30 74.91, 152.51 98.28 12/22/2023 01:39:34 74.88, 155.84 98.23 96.62 64
2 12/22/2023 02:27:53 -74.91, -39.83 81.73 12/22/2023 02:28:57 -74.84, -36.60 81.81 94.24 64
3 12/22/2023 03:17:15 74.82, 128.04 98.19 12/22/2023 03:18:20 74.74, 130.83 98.10 81.77 65
4 12/22/2023 04:06:37 -74.77, -64.17 81.87 12/22/2023 04:07:43 -74.71, -61.61 81.94 75.40 66
5 12/22/2023 04:55:59 74.68, 103.71 98.04 12/22/2023 04:57:06 74.61, 105.82 97.97 62.87 67
6 12/22/2023 05:45:21 -74.63, -88.51 82.01 12/22/2023 05:46:29 -74.58, -86.61 82.08 56.56 68
7 12/22/2023 06:34:43 74.54, 79.36 97.90 12/22/2023 06:35:52 74.48, 80.82 97.83 44.02 69
8 12/22/2023 07:24:05 -74.49,-112.86 82.16 12/22/2023 07:25:15 -74.44,-111.60 82.21 37.76 70
9 12/22/2023 08:13:28 74.45, 54.89 97.81 12/22/2023 08:14:37 74.40, 55.95 97.75 32.38 69
10 12/22/2023 09:02:50 -74.40,-137.33 82.25 12/22/2023 09:04:00 -74.36,-136.47 82.29 26.14 70
11 12/22/2023 09:52:12 74.31, 30.53 97.67 12/22/2023 09:53:23 74.27, 30.96 97.62 13.96 71
12 12/22/2023 10:41:34 -74.26,-161.69 82.39 12/22/2023 10:42:46 -74.23,-161.46 82.42 7.86 72
13 12/22/2023 11:30:56 74.17, 6.17 97.52 12/22/2023 11:32:08 74.18, 6.09 97.53 2.74 72
14 12/22/2023 12:20:19 -74.18, 173.83 82.48 12/22/2023 12:21:30 -74.20, 173.79 82.45 3.03 71
15 12/22/2023 13:09:43 74.19, -18.55 97.54 12/22/2023 13:10:51 74.21, -18.54 97.56 2.03 68
16 12/22/2023 13:59:06 -74.19, 149.10 82.47 12/22/2023 14:00:14 -74.17, 149.04 82.48 2.76 68
17 12/22/2023 14:48:30 74.20, -43.28 97.55 12/22/2023 14:49:35 74.18, -43.29 97.53 2.86 65
18 12/22/2023 15:37:53 -74.20, 124.38 82.45 12/22/2023 15:38:57 -74.19, 124.41 82.46 1.40 64
19 12/22/2023 16:27:17 74.21, -68.00 97.57 12/22/2023 16:28:18 74.20, -67.92 97.55 3.08 61
20 12/22/2023 17:16:39 -74.16, 99.77 82.49 12/22/2023 17:17:41 -74.16, 99.66 82.49 3.46 62
21 12/22/2023 18:06:03 74.18, -92.61 97.53 12/22/2023 18:07:02 74.17, -92.67 97.52 2.21 59
22 12/22/2023 18:55:26 -74.18, 75.05 82.48 12/22/2023 18:56:24 -74.18, 75.03 82.47 1.01 58
23 12/22/2023 19:44:50 74.19,-117.33 97.54 12/22/2023 19:45:45 74.19,-117.30 97.54 0.88 55
24 12/22/2023 20:34:13 -74.19, 50.32 82.46 12/22/2023 20:35:07 -74.21, 50.39 82.45 2.83 54
25 12/22/2023 21:23:36 74.15,-141.94 97.50 12/22/2023 21:24:29 74.16,-142.05 97.51 3.62 53
26 12/22/2023 22:12:59 -74.15, 25.72 82.50 12/22/2023 22:13:51 -74.18, 25.64 82.48 3.39 52
27 12/22/2023 23:02:23 74.17,-166.66 97.51 12/22/2023 23:03:12 74.18,-166.68 97.53 1.88 49
28 12/22/2023 23:51:46 -74.17, 0.99 82.49 12/22/2023 23:52:34 -74.20, 1.01 82.46 3.62 48
29 12/23/2023 00:41:10 74.18, 168.61 97.53 12/23/2023 00:41:56 74.15, 168.57 97.50 3.41 46
30 12/23/2023 01:30:33 -74.18, -23.74 82.48 12/23/2023 01:31:18 -74.17, -23.74 82.49 1.27 45
31 12/23/2023 02:19:57 74.19, 143.89 97.54 12/23/2023 02:20:39 74.17, 143.93 97.52 2.62 42
32 12/23/2023 03:09:20 -74.19, -48.46 82.46 12/23/2023 03:10:01 -74.19, -48.37 82.47 2.83 41



Historial Predications of SNOs between AQUA and TERRA
